Weather History for Quillayute, WA

Change the Weather History Date:

Tuesday, June 10, 2014

  Actual Average Record
Temperature  
Mean Temperature 56 °F 55 °F  
Max Temperature 63 °F 62 °F 77 °F (1975)
Min Temperature 48 °F 47 °F 36 °F (1973)
Degree Days  
Heating Degree Days 9 10  
Month to date heating degree days 92 110  
Since 1 June heating degree days 92 110  
Since 1 July heating degree days 4695 5578  
Cooling Degree Days 0 0  
Month to date cooling degree days 0 0  
Year to date cooling degree days 4 1  
Since 1 June cooling degree days 0 0  
Growing Degree Days 6 (Base 50)    
Moisture  
Dew Point 50 °F    
Average Humidity 86    
Maximum Humidity 100    
Minimum Humidity 72    
Precipitation  
Precipitation 0.00 in 0.13 in 1.58 in (1990)
Month to date precipitation 0.04 1.40  
Year to date precipitation 52.23 50.15  
Sea Level Pressure  
Sea Level Pressure 30.13 in    
Wind  
Wind Speed 5 mph (West)    
Max Wind Speed 12 mph    
Max Gust Speed 16 mph    
Visibility 7 miles    
Events      
T = Trace of Precipitation, MM = Missing Value Source: NWS Daily Summary

Daily Weather History Graph

Daily Weather History Graph

Search for Another Location

Airport:

Trip Planner

Search our weather history database for the weather conditions in past years. The results will help you decide how hot, cold, wet, or windy it might be!

Date:

Astronomy

Jun. 10, 2014 Rise Set
Actual Time 5:19 AM PDT 9:16 PM PDT
Civil Twilight 4:38 AM PDT 9:57 PM PDT
Nautical Twilight 3:42 AM PDT 10:53 PM PDT
Astronomical Twilight 2:12 AM PDT 12:25 AM PDT
Moon 6:38 PM PDT (6/10) 3:41 AM PDT (6/10)
Length of Visible Light 17h 19m
Length of Day
15h 57m
Waxing Gibbous, 93% of the Moon is Illuminated
Jun 10
Waxing Gibbous
Jun 12
Full
Jun 19
Last Quarter
Jun 27
New
Jul 5
First Quarter

Hourly Weather History & Observations

Time (PDT) Temp. Dew Point Humidity Pressure Visibility Wind Dir Wind Speed Gust Speed Precip Events Conditions
12:53 AM 51.1 °F 48.9 °F 92% 30.14 in 7.0 mi North 3.5 mph - N/A   Mostly Cloudy
1:08 AM 50.0 °F 48.0 °F 93% 30.14 in 7.0 mi Calm Calm - N/A   Scattered Clouds
1:48 AM 48.2 °F 46.4 °F 93% 30.13 in 7.0 mi Calm Calm - N/A   Mostly Cloudy
1:53 AM 48.9 °F 46.9 °F 93% 30.13 in 7.0 mi Calm Calm - N/A   Mostly Cloudy
2:53 AM 48.9 °F 48.0 °F 97% 30.14 in 6.0 mi Calm Calm - N/A   Overcast
3:53 AM 52.0 °F 50.0 °F 93% 30.14 in 7.0 mi Calm Calm - N/A   Overcast
4:53 AM 51.1 °F 48.9 °F 92% 30.12 in 7.0 mi Calm Calm - N/A   Overcast
5:00 AM 51.1 °F 48.9 °F 92% 30.12 in 7.0 mi Calm Calm - N/A   Overcast
5:38 AM 51.1 °F 50.0 °F 96% 30.12 in 6.0 mi Calm Calm - N/A   Overcast
5:53 AM 51.1 °F 50.0 °F 96% 30.12 in 5.0 mi Calm Calm - N/A   Overcast
6:53 AM 52.0 °F 50.0 °F 93% 30.13 in 5.0 mi Calm Calm - N/A   Overcast
7:53 AM 53.6 °F 50.0 °F 88% 30.13 in 6.0 mi WNW 5.8 mph - N/A   Overcast
8:21 AM 54.0 °F 50.0 °F 86% 30.13 in 6.0 mi West 6.9 mph - N/A   Overcast
8:28 AM 55.0 °F 50.0 °F 83% 30.13 in 6.0 mi WNW 4.6 mph - N/A   Haze
8:53 AM 55.0 °F 50.0 °F 83% 30.13 in 6.0 mi WNW 3.5 mph - N/A   Haze
9:53 AM 55.4 °F 50.0 °F 82% 30.14 in 7.0 mi WNW 5.8 mph - N/A   Overcast
10:14 AM 55.9 °F 50.0 °F 80% 30.14 in 7.0 mi WNW 5.8 mph - N/A   Overcast
10:38 AM 55.4 °F 51.8 °F 88% 30.14 in 7.0 mi Variable 3.5 mph - N/A   Overcast
10:53 AM 55.9 °F 50.0 °F 80% 30.14 in 7.0 mi West 9.2 mph - N/A   Overcast
11:53 AM 55.4 °F 50.0 °F 82% 30.14 in 7.0 mi West 9.2 mph - N/A   Overcast
12:53 PM 57.9 °F 50.0 °F 75% 30.14 in 7.0 mi West 5.8 mph - N/A   Overcast
1:53 PM 60.8 °F 51.8 °F 72% 30.14 in 7.0 mi WSW 8.1 mph - N/A   Overcast
2:34 PM 61.0 °F 51.1 °F 70% 30.14 in 7.0 mi WSW 9.2 mph - N/A   Overcast
2:53 PM 59.0 °F 50.0 °F 72% 30.15 in 7.0 mi West 9.2 mph - N/A   Mostly Cloudy
3:53 PM 60.1 °F 51.1 °F 72% 30.15 in 7.0 mi West 8.1 mph - N/A   Overcast
4:19 PM 59.0 °F 51.1 °F 75% 30.15 in 7.0 mi West 6.9 mph - N/A   Overcast
4:46 PM 60.1 °F 51.1 °F 72% 30.15 in 7.0 mi SW 8.1 mph - N/A   Mostly Cloudy
4:53 PM 61.0 °F 52.0 °F 72% 30.15 in 7.0 mi WSW 9.2 mph - N/A   Mostly Cloudy
5:19 PM 61.0 °F 52.0 °F 72% 30.14 in 7.0 mi WSW 8.1 mph - N/A   Scattered Clouds
5:53 PM 59.0 °F 51.1 °F 75% 30.14 in 7.0 mi SW 5.8 mph - N/A   Scattered Clouds
6:53 PM 57.9 °F 51.1 °F 78% 30.12 in 7.0 mi West 5.8 mph - N/A   Overcast
7:53 PM 57.2 °F 51.8 °F 82% 30.11 in 7.0 mi West 4.6 mph - N/A   Overcast
8:53 PM 55.0 °F 51.1 °F 86% 30.11 in 7.0 mi Calm Calm - N/A   Overcast
9:53 PM 52.0 °F 50.0 °F 93% 30.11 in 8.0 mi Calm Calm - N/A   Clear
10:31 PM 51.1 °F 50.0 °F 96% 30.11 in 8.0 mi Calm Calm - N/A   Mostly Cloudy
10:41 PM 51.1 °F 48.9 °F 92% 30.11 in 8.0 mi Calm Calm - N/A   Overcast
10:53 PM 51.1 °F 50.0 °F 96% 30.11 in 8.0 mi Calm Calm - N/A   Overcast
11:43 PM 52.0 °F 51.1 °F 97% 30.10 in 8.0 mi Calm Calm - N/A   Overcast
11:53 PM 52.0 °F 50.0 °F 93% 30.10 in 8.0 mi SE 3.5 mph - N/A   Overcast